sat.trackr.live / text

‹ back to catalog

STARLINK-5205

NORAD 54202 · 2022-141AX

PAYLOAD ACTIVE UNKNOWN

§ Identity

Operator
Country
US
Launch date
2022-10-28
Launch site
AFWTR
Launch vehicle
Mass (kg)
RCS (m²)

Purposes: comms

External: N2YO · Heavens-Above · Gunter

§ Orbital elements

Epoch: 2026-09-20T06:45:53.323488Z

Period
93.79 min
Inclination
53.1596°
Eccentricity
0.0001092
Mean motion
15.35400249 rev/d
Perigee alt
459.0 km
Apogee alt
460.5 km
Semi-major
6,837.9 km
B*
4.5690e-5
RAAN
188.7490°
Arg perigee
90.4220°
Mean anomaly
269.6908°
Rev number
21,553

§ Raw data

STARLINK-52051 54202U 22141AX  26263.28186717  .00001214  00000+0  45690-4 0  99972 54202  53.1596 188.7490 0001092  90.4220 269.6908 15.35400249215539

JSON: /api/v1/satellites/54202 · /tle

For live sub-satellite position, see the globe view (requires WebGL).

§ Visibility from observer

Set your observer location to see the next 7 days of passes ≥ 10°. The values pass through the URL so the page stays shareable.

No JS? Fill the form by hand. The geolocation button needs JavaScript.